This is the latest recevied weather packets stored in our database for station/object IW5CTE-13. If no packets are shown the sender has not sent any weather packets the latest 10 day(s).
| Time | Temp. | Humidity | Pressure | Rain* | Wind** | Luminosity | Snow |
|---|---|---|---|---|---|---|---|
| 1777751252 | 17.22° C | 45% | 1022.7 hPa | - | - | - | - |
| 1777750652 | 17.78° C | 46% | 1022.5 hPa | - | - | - | - |
| 1777750052 | 17.78° C | 48% | 1022.5 hPa | - | - | - | - |
| 1777749452 | 18.33° C | 47% | 1022.4 hPa | - | - | - | - |
| 1777748852 | 18.33° C | 47% | 1022.3 hPa | - | - | - | - |
| 1777748251 | 18.33° C | 43% | 1022.2 hPa | - | - | - | - |
| 1777747652 | 18.33° C | 47% | 1022.2 hPa | - | - | - | - |
| 1777747052 | 18.89° C | 45% | 1022.2 hPa | - | - | - | - |
| 1777746452 | 18.89° C | 41% | 1022 hPa | - | - | - | - |
| 1777745851 | 18.89° C | 34% | 1021.8 hPa | - | - | - | - |
| 1777745252 | 18.89° C | 34% | 1021.7 hPa | - | - | - | - |
| 1777744652 | 18.89° C | 39% | 1021.8 hPa | - | - | - | - |
| 1777744052 | 18.89° C | 43% | 1021.7 hPa | - | - | - | - |
| 1777743452 | 18.89° C | 48% | 1021.8 hPa | - | - | - | - |
| 1777742852 | 18.89° C | 50% | 1021.8 hPa | - | - | - | - |
| 1777742252 | 19.44° C | 51% | 1021.8 hPa | - | - | - | - |
| 1777741653 | 19.44° C | 47% | 1021.8 hPa | - | - | - | - |
| 1777741051 | 19.44° C | 43% | 1021.9 hPa | - | - | - | - |
| 1777740452 | 19.44° C | 40% | 1021.9 hPa | - | - | - | - |
| 1777739851 | 19.44° C | 42% | 1022 hPa | - | - | - | - |
| 1777739252 | 20° C | 41% | 1022.2 hPa | - | - | - | - |
| 1777738652 | 20° C | 41% | 1022.1 hPa | - | - | - | - |
| 1777738051 | 20° C | 43% | 1022.1 hPa | - | - | - | - |
| 1777737451 | 20° C | 42% | 1022.3 hPa | - | - | - | - |
| 1777736852 | 20° C | 42% | 1022.3 hPa | - | - | - | - |
* Rain since midnight (hover to see other rain measurements)
** Current wind speed in m/s (hover to see current wind gust speed)